| time (UTC) | temp C | wind direction | speed KPH | gust KPH | rain 1hr cm | rain 24hr cm | rain mn cm | humidity % | barometer mb |
| 20260503055118 | 12 | 182 | 1.6 | 3.2 | 0.00 | 0.00 | 0.00 | 61 | 994.5 |
| 20260503054718 | 12 | 175 | 4.8 | 8.0 | 0.00 | 0.00 | 0.00 | 62 | 994.5 |
| 20260503054316 | 12 | 140 | 4.8 | 12.9 | 0.00 | 0.00 | 0.00 | 63 | 994.4 |
| 20260503053916 | 12 | 148 | 3.2 | 6.4 | 0.00 | 0.00 | 0.00 | 63 | 994.4 |
| 20260503053549 | 12 | 125 | 3.2 | 6.4 | 0.00 | 0.00 | 0.00 | 64 | 994.5 |
| 20260503053516 | 12 | 125 | 3.2 | 6.4 | 0.00 | 0.00 | 0.00 | 64 | 994.5 |
| 20260503053116 | 11 | 112 | 6.4 | 9.7 | 0.00 | 0.00 | 0.00 | 64 | 994.4 |
| 20260503052716 | 11 | 105 | 6.4 | 8.0 | 0.00 | 0.00 | 0.00 | 65 | 994.5 |
| 20260503052306 | 11 | 100 | 4.8 | 6.4 | 0.00 | 0.00 | 0.00 | 65 | 994.5 |
| 20260503051905 | 11 | 99 | 4.8 | 8.0 | 0.00 | 0.00 | 0.00 | 65 | 994.5 |
| 20260503051504 | 11 | 103 | 4.8 | 8.0 | 0.00 | 0.00 | 0.00 | 66 | 994.5 |
| 20260503051101 | 11 | 97 | 6.4 | 8.0 | 0.00 | 0.00 | 0.00 | 66 | 994.6 |
| 20260503050701 | 11 | 99 | 4.8 | 6.4 | 0.00 | 0.00 | 0.00 | 66 | 994.6 |
| 20260503050259 | 11 | 98 | 3.2 | 4.8 | 0.00 | 0.00 | 0.00 | 66 | 994.6 |
| 20260503045859 | 10 | 126 | 3.2 | 4.8 | 0.00 | 0.00 | 0.00 | 66 | 994.6 |
| 20260503045459 | 10 | 112 | 1.6 | 3.2 | 0.00 | 0.00 | 0.00 | 67 | 994.6 |
| 20260503045059 | 10 | 102 | 1.6 | 3.2 | 0.00 | 0.00 | 0.00 | 67 | 994.6 |
| 20260503044659 | 10 | 110 | 0.0 | 3.2 | 0.00 | 0.00 | 0.00 | 67 | 994.6 |
| 20260503044257 | 10 | 116 | 1.6 | 4.8 | 0.00 | 0.00 | 0.00 | 67 | 994.6 |
| 20260503043857 | 10 | 125 | 3.2 | 4.8 | 0.00 | 0.00 | 0.00 | 68 | 994.6 |
| 20260503043456 | 10 | 114 | 1.6 | 3.2 | 0.00 | 0.00 | 0.00 | 68 | 994.6 |
| 20260503043056 | 10 | 149 | 3.2 | 6.4 | 0.00 | 0.00 | 0.00 | 68 | 994.6 |
| 20260503042656 | 10 | 118 | 3.2 | 6.4 | 0.00 | 0.00 | 0.00 | 68 | 994.6 |
| 20260503042254 | 10 | 101 | 1.6 | 4.8 | 0.00 | 0.00 | 0.00 | 68 | 994.6 |
| 20260503041854 | 10 | 110 | 0.0 | 0.0 | 0.00 | 0.00 | 0.00 | 68 | 994.6 |
| 20260503041454 | 10 | 120 | 1.6 | 1.6 | 0.00 | 0.00 | 0.00 | 69 | 994.5 |
| 20260503041054 | 9 | 123 | 3.2 | 8.0 | 0.00 | 0.00 | 0.00 | 69 | 994.5 |
| 20260503040654 | 9 | 126 | 1.6 | 3.2 | 0.00 | 0.00 | 0.00 | 69 | 994.5 |
| 20260503040325 | 9 | 117 | 3.2 | 4.8 | 0.00 | 0.00 | 0.00 | 69 | 994.4 |
| 20260503040252 | 9 | 117 | 3.2 | 4.8 | 0.00 | 0.00 | 0.00 | 69 | 994.4 |
| 20260503035849 | 9 | 130 | 1.6 | 3.2 | 0.00 | 0.00 | 0.00 | 69 | 994.4 |
| 20260503035450 | 9 | 105 | 4.8 | 6.4 | 0.00 | 0.00 | 0.00 | 69 | 994.5 |
| 20260503035050 | 9 | 107 | 6.4 | 9.7 | 0.00 | 0.00 | 0.00 | 69 | 994.5 |
| 20260503034650 | 9 | 105 | 6.4 | 8.0 | 0.00 | 0.00 | 0.00 | 69 | 994.5 |
| 20260503034247 | 9 | 105 | 4.8 | 8.0 | 0.00 | 0.00 | 0.00 | 69 | 994.6 |
| 20260503033848 | 9 | 110 | 4.8 | 8.0 | 0.00 | 0.00 | 0.00 | 68 | 994.6 |
| 20260503033448 | 9 | 114 | 4.8 | 6.4 | 0.00 | 0.00 | 0.00 | 68 | 994.5 |
| 20260503033048 | 9 | 115 | 4.8 | 6.4 | 0.00 | 0.00 | 0.00 | 68 | 994.6 |
| 20260503032648 | 10 | 114 | 4.8 | 6.4 | 0.00 | 0.00 | 0.00 | 68 | 994.6 |
| 20260503032246 | 10 | 112 | 4.8 | 6.4 | 0.00 | 0.00 | 0.00 | 67 | 994.6 |
| 20260503031846 | 10 | 113 | 3.2 | 4.8 | 0.00 | 0.00 | 0.00 | 67 | 994.6 |
| 20260503031446 | 10 | 110 | 3.2 | 4.8 | 0.00 | 0.00 | 0.00 | 67 | 994.7 |
| 20260503031046 | 10 | 114 | 3.2 | 4.8 | 0.00 | 0.00 | 0.00 | 67 | 994.7 |
| 20260503030646 | 10 | 103 | 1.6 | 1.6 | 0.00 | 0.00 | 0.00 | 67 | 994.7 |
| 20260503030244 | 10 | 109 | 1.6 | 3.2 | 0.00 | 0.00 | 0.00 | 66 | 994.7 |
| 20260503025844 | 10 | 112 | 1.6 | 3.2 | 0.00 | 0.00 | 0.00 | 66 | 994.6 |
| 20260503025444 | 10 | 110 | 3.2 | 4.8 | 0.00 | 0.00 | 0.00 | 66 | 994.7 |
| 20260503025034 | 10 | 106 | 3.2 | 4.8 | 0.00 | 0.00 | 0.00 | 66 | 994.7 |
| 20260503024633 | 10 | 116 | 0.0 | 0.0 | 0.00 | 0.00 | 0.00 | 66 | 994.7 |
| 20260503024230 | 10 | 117 | 1.6 | 3.2 | 0.00 | 0.00 | 0.00 | 65 | 994.7 |
| 20260503023829 | 10 | 114 | 3.2 | 6.4 | 0.00 | 0.00 | 0.00 | 65 | 994.7 |
| 20260503023029 | 10 | 105 | 3.2 | 4.8 | 0.00 | 0.00 | 0.00 | 65 | 994.7 |
| 20260503022629 | 10 | 108 | 1.6 | 3.2 | 0.00 | 0.00 | 0.00 | 65 | 994.8 |
| 20260503022227 | 10 | 110 | 0.0 | 1.6 | 0.00 | 0.00 | 0.00 | 64 | 994.9 |
| 20260503021827 | 10 | 108 | 1.6 | 1.6 | 0.00 | 0.00 | 0.00 | 64 | 994.8 |
| 20260503021427 | 10 | 108 | 0.0 | 0.0 | 0.00 | 0.00 | 0.00 | 64 | 994.9 |
| 20260503021059 | 11 | 108 | 0.0 | 0.0 | 0.00 | 0.00 | 0.00 | 63 | 994.9 |
| 20260503021027 | 11 | 108 | 0.0 | 0.0 | 0.00 | 0.00 | 0.00 | 63 | 994.9 |
| 20260503020626 | 11 | 108 | 0.0 | 0.0 | 0.00 | 0.00 | 0.00 | 63 | 994.9 |
| 20260503020224 | 11 | 109 | 0.0 | 0.0 | 0.00 | 0.00 | 0.00 | 63 | 994.9 |
| 20260503015824 | 11 | 108 | 1.6 | 1.6 | 0.00 | 0.00 | 0.00 | 62 | 994.9 |
| 20260503015424 | 11 | 109 | 1.6 | 3.2 | 0.00 | 0.00 | 0.00 | 62 | 994.9 |
| 20260503014624 | 11 | 108 | 0.0 | 0.0 | 0.00 | 0.00 | 0.00 | 62 | 994.9 |
| 20260503014222 | 11 | 109 | 0.0 | 0.0 | 0.00 | 0.00 | 0.00 | 61 | 995.0 |
| 20260503013819 | 11 | 109 | 0.0 | 0.0 | 0.00 | 0.00 | 0.00 | 61 | 995.0 |
| 20260503013419 | 11 | 108 | 1.6 | 1.6 | 0.00 | 0.00 | 0.00 | 60 | 995.1 |
| 20260503013019 | 11 | 106 | 3.2 | 4.8 | 0.00 | 0.00 | 0.00 | 60 | 995.1 |
| 20260503012619 | 11 | 103 | 4.8 | 6.4 | 0.00 | 0.00 | 0.00 | 60 | 995.1 |
| 20260503012217 | 11 | 106 | 3.2 | 4.8 | 0.00 | 0.00 | 0.00 | 60 | 995.1 |
| 20260503011817 | 12 | 104 | 3.2 | 3.2 | 0.00 | 0.00 | 0.00 | 59 | 995.1 |
| 20260503011016 | 12 | 121 | 0.0 | 1.6 | 0.00 | 0.00 | 0.00 | 59 | 995.1 |
| 20260503010616 | 12 | 120 | 0.0 | 1.6 | 0.00 | 0.00 | 0.00 | 59 | 995.2 |
| 20260503010214 | 12 | 120 | 0.0 | 1.6 | 0.00 | 0.00 | 0.00 | 58 | 995.2 |
| 20260503005814 | 12 | 124 | 1.6 | 3.2 | 0.00 | 0.00 | 0.00 | 58 | 995.2 |
| 20260503005414 | 12 | 128 | 0.0 | 1.6 | 0.00 | 0.00 | 0.00 | 58 | 995.2 |
| 20260503005014 | 12 | 127 | 1.6 | 3.2 | 0.00 | 0.00 | 0.00 | 57 | 995.2 |
| 20260503004614 | 12 | 132 | 1.6 | 1.6 | 0.00 | 0.00 | 0.00 | 57 | 995.2 |
| 20260503004212 | 12 | 132 | 1.6 | 4.8 | 0.00 | 0.00 | 0.00 | 57 | 995.3 |
| 20260503003812 | 12 | 132 | 0.0 | 1.6 | 0.00 | 0.00 | 0.00 | 56 | 995.3 |
| 20260503003412 | 13 | 137 | 1.6 | 4.8 | 0.00 | 0.00 | 0.00 | 56 | 808.8 |
| 20260503002758 | 13 | 162 | 3.2 | 6.4 | 0.00 | 0.00 | 0.00 | 56 | 995.4 |
| 20260503002359 | 13 | 154 | 1.6 | 3.2 | 0.00 | 0.00 | 0.00 | 55 | 995.4 |
| 20260503001959 | 13 | 153 | 3.2 | 8.0 | 0.00 | 0.00 | 0.00 | 55 | 995.4 |
| 20260503001559 | 13 | 152 | 3.2 | 4.8 | 0.00 | 0.00 | 0.00 | 55 | 995.4 |
| 20260503001157 | 13 | 162 | 3.2 | 6.4 | 0.00 | 0.00 | 0.00 | 55 | 995.4 |
| 20260503000757 | 13 | 150 | 3.2 | 6.4 | 0.00 | 0.00 | 0.00 | 55 | 995.4 |
| 20260503000357 | 13 | 152 | 3.2 | 8.0 | 0.00 | 0.00 | 0.00 | 54 | 995.5 |
| 20260502235947 | 13 | 138 | 3.2 | 6.4 | 0.00 | 0.00 | 0.00 | 54 | 995.5 |
| 20260502235546 | 13 | 151 | 4.8 | 9.7 | 0.00 | 0.00 | 0.00 | 54 | 995.5 |
| 20260502235143 | 13 | 156 | 6.4 | 9.7 | 0.00 | 0.00 | 0.00 | 54 | 995.6 |
| 20260502234742 | 13 | 163 | 4.8 | 8.0 | 0.00 | 0.00 | 0.00 | 54 | 995.6 |
| 20260502234342 | 13 | 165 | 6.4 | 9.7 | 0.00 | 0.00 | 0.00 | 54 | 995.6 |
| 20260502233943 | 13 | 160 | 4.8 | 11.3 | 0.00 | 0.00 | 0.00 | 53 | 995.7 |
| 20260502233542 | 13 | 160 | 4.8 | 9.7 | 0.00 | 0.00 | 0.00 | 53 | 995.7 |
| 20260502233140 | 14 | 157 | 3.2 | 8.0 | 0.00 | 0.00 | 0.00 | 53 | 995.7 |
| 20260502232340 | 14 | 137 | 4.8 | 9.7 | 0.00 | 0.00 | 0.00 | 52 | 995.7 |
| 20260502231940 | 14 | 154 | 4.8 | 9.7 | 0.00 | 0.00 | 0.00 | 52 | 995.7 |
| 20260502231539 | 14 | 159 | 6.4 | 11.3 | 0.00 | 0.00 | 0.00 | 52 | 995.7 |
| 20260502231137 | 14 | 167 | 8.0 | 12.9 | 0.00 | 0.00 | 0.00 | 52 | 995.8 |
| 20260502230737 | 14 | 162 | 6.4 | 9.7 | 0.00 | 0.00 | 0.00 | 52 | 995.9 |
| 20260502230337 | 14 | 157 | 6.4 | 8.0 | 0.00 | 0.00 | 0.00 | 52 | 995.9 |
| 20260502225938 | 14 | 162 | 6.4 | 12.9 | 0.00 | 0.00 | 0.00 | 51 | 995.9 |
| 20260502225538 | 15 | 163 | 4.8 | 9.7 | 0.00 | 0.00 | 0.00 | 51 | 995.9 |
| 20260502224733 | 15 | 155 | 6.4 | 11.3 | 0.00 | 0.00 | 0.00 | 51 | 995.8 |
| 20260502224332 | 15 | 138 | 6.4 | 9.7 | 0.00 | 0.00 | 0.00 | 51 | 995.8 |
| 20260502223932 | 15 | 150 | 6.4 | 11.3 | 0.00 | 0.00 | 0.00 | 51 | 995.9 |
| 20260502223533 | 15 | 140 | 3.2 | 8.0 | 0.00 | 0.00 | 0.00 | 51 | 995.9 |
| 20260502223131 | 15 | 135 | 4.8 | 14.5 | 0.00 | 0.00 | 0.00 | 51 | 995.9 |
| 20260502222731 | 15 | 138 | 4.8 | 6.4 | 0.00 | 0.00 | 0.00 | 51 | 996.0 |
| 20260502222331 | 15 | 150 | 4.8 | 9.7 | 0.00 | 0.00 | 0.00 | 50 | 995.9 |
| 20260502221930 | 15 | 142 | 4.8 | 8.0 | 0.00 | 0.00 | 0.00 | 50 | 996.0 |
| 20260502221530 | 15 | 122 | 6.4 | 12.9 | 0.00 | 0.00 | 0.00 | 50 | 996.0 |
| 20260502221128 | 15 | 143 | 4.8 | 11.3 | 0.00 | 0.00 | 0.00 | 50 | 996.0 |
| 20260502220728 | 15 | 131 | 3.2 | 11.3 | 0.00 | 0.00 | 0.00 | 50 | 996.0 |
| 20260502220328 | 15 | 128 | 4.8 | 9.7 | 0.00 | 0.00 | 0.00 | 50 | 996.0 |
| 20260502215928 | 15 | 134 | 4.8 | 9.7 | 0.00 | 0.00 | 0.00 | 50 | 996.1 |
| 20260502215528 | 15 | 149 | 3.2 | 8.0 | 0.00 | 0.00 | 0.00 | 50 | 996.0 |
| 20260502215126 | 15 | 125 | 4.8 | 9.7 | 0.00 | 0.00 | 0.00 | 50 | 996.1 |
| 20260502214726 | 15 | 130 | 6.4 | 9.7 | 0.00 | 0.00 | 0.00 | 49 | 996.1 |
| 20260502214326 | 15 | 135 | 6.4 | 11.3 | 0.00 | 0.00 | 0.00 | 49 | 809.2 |
| 20260502214116 | 15 | 144 | 6.4 | 12.9 | 0.00 | 0.00 | 0.00 | 49 | 996.2 |
| 20260502213713 | 15 | 147 | 4.8 | 9.7 | 0.00 | 0.00 | 0.00 | 49 | 996.2 |
| 20260502213312 | 15 | 138 | 6.4 | 16.1 | 0.00 | 0.00 | 0.00 | 49 | 996.2 |
| 20260502212911 | 15 | 130 | 6.4 | 9.7 | 0.00 | 0.00 | 0.00 | 49 | 996.3 |
| 20260502212512 | 16 | 135 | 4.8 | 9.7 | 0.00 | 0.00 | 0.00 | 49 | 996.3 |
| 20260502212110 | 16 | 129 | 4.8 | 9.7 | 0.00 | 0.00 | 0.00 | 49 | 996.3 |
| 20260502211710 | 16 | 125 | 4.8 | 11.3 | 0.00 | 0.00 | 0.00 | 49 | 996.3 |
| 20260502211310 | 16 | 152 | 4.8 | 9.7 | 0.00 | 0.00 | 0.00 | 49 | 996.3 |
| 20260502210910 | 16 | 136 | 6.4 | 11.3 | 0.00 | 0.00 | 0.00 | 49 | 996.3 |
| 20260502210510 | 16 | 140 | 6.4 | 9.7 | 0.00 | 0.00 | 0.00 | 49 | 996.3 |
| 20260502210106 | 16 | 128 | 8.0 | 11.3 | 0.00 | 0.00 | 0.00 | 49 | 996.3 |
| 20260502205706 | 16 | 122 | 8.0 | 12.9 | 0.00 | 0.00 | 0.00 | 49 | 996.3 |
| 20260502205306 | 16 | 135 | 4.8 | 11.3 | 0.00 | 0.00 | 0.00 | 49 | 996.4 |
| 20260502204907 | 16 | 135 | 4.8 | 9.7 | 0.00 | 0.00 | 0.00 | 49 | 996.3 |
| 20260502204507 | 16 | 130 | 8.0 | 16.1 | 0.00 | 0.00 | 0.00 | 49 | 996.4 |
| 20260502204104 | 16 | 138 | 8.0 | 19.3 | 0.00 | 0.00 | 0.00 | 49 | 996.3 |
| 20260502203705 | 15 | 124 | 6.4 | 14.5 | 0.00 | 0.00 | 0.00 | 49 | 996.4 |
| 20260502203305 | 16 | 111 | 6.4 | 11.3 | 0.00 | 0.00 | 0.00 | 50 | 996.4 |
| 20260502202902 | 16 | 118 | 8.0 | 14.5 | 0.00 | 0.00 | 0.00 | 50 | 996.4 |
| 20260502202502 | 16 | 108 | 1.6 | 4.8 | 0.00 | 0.00 | 0.00 | 50 | 996.5 |
| 20260502202100 | 16 | 121 | 1.6 | 3.2 | 0.00 | 0.00 | 0.00 | 49 | 996.5 |
| 20260502201700 | 16 | 113 | 4.8 | 6.4 | 0.00 | 0.00 | 0.00 | 49 | 996.5 |
| 20260502201301 | 16 | 97 | 8.0 | 11.3 | 0.00 | 0.00 | 0.00 | 48 | 996.6 |
| 20260502200901 | 16 | 104 | 6.4 | 9.7 | 0.00 | 0.00 | 0.00 | 47 | 996.5 |
| 20260502200501 | 17 | 173 | 3.2 | 3.2 | 0.00 | 0.00 | 0.00 | 47 | 996.3 |
| 20260502200058 | 17 | 159 | 1.6 | 3.2 | 0.00 | 0.00 | 0.00 | 46 | 996.4 |
| 20260502195659 | 17 | 176 | 3.2 | 6.4 | 0.00 | 0.00 | 0.00 | 46 | 996.4 |
| 20260502195256 | 17 | 178 | 4.8 | 6.4 | 0.00 | 0.00 | 0.00 | 46 | 996.4 |
| 20260502194856 | 17 | 175 | 3.2 | 4.8 | 0.00 | 0.00 | 0.00 | 46 | 996.4 |
| 20260502194456 | 17 | 169 | 3.2 | 6.4 | 0.00 | 0.00 | 0.00 | 46 | 996.3 |
| 20260502194054 | 17 | 172 | 3.2 | 4.8 | 0.00 | 0.00 | 0.00 | 45 | 996.4 |
| 20260502193654 | 17 | 175 | 4.8 | 6.4 | 0.00 | 0.00 | 0.00 | 45 | 996.4 |
| 20260502193254 | 17 | 185 | 3.2 | 4.8 | 0.00 | 0.00 | 0.00 | 45 | 996.4 |
| 20260502192854 | 17 | 174 | 3.2 | 4.8 | 0.00 | 0.00 | 0.00 | 45 | 996.4 |
| 20260502192454 | 18 | 171 | 3.2 | 6.4 | 0.00 | 0.00 | 0.00 | 44 | 996.5 |
| 20260502192052 | 18 | 183 | 3.2 | 4.8 | 0.00 | 0.00 | 0.00 | 44 | 996.5 |
| 20260502191649 | 18 | 182 | 3.2 | 6.4 | 0.00 | 0.00 | 0.00 | 44 | 996.4 |
| 20260502191249 | 18 | 180 | 3.2 | 4.8 | 0.00 | 0.00 | 0.00 | 43 | 996.4 |
| 20260502190441 | 18 | 182 | 3.2 | 4.8 | 0.00 | 0.00 | 0.00 | 43 | 996.4 |
| 20260502190038 | 18 | 178 | 3.2 | 4.8 | 0.00 | 0.00 | 0.00 | 42 | 996.4 |
| 20260502185237 | 19 | 163 | 3.2 | 3.2 | 0.00 | 0.00 | 0.00 | 42 | 996.3 |
| 20260502184837 | 20 | 165 | 3.2 | 6.4 | 0.00 | 0.00 | 0.00 | 41 | 996.3 |
| 20260502184437 | 20 | 164 | 3.2 | 4.8 | 0.00 | 0.00 | 0.00 | 41 | 996.3 |
| 20260502184035 | 20 | 169 | 3.2 | 4.8 | 0.00 | 0.00 | 0.00 | 40 | 996.3 |
| 20260502183635 | 20 | 171 | 3.2 | 6.4 | 0.00 | 0.00 | 0.00 | 40 | 996.4 |
| 20260502183235 | 21 | 170 | 3.2 | 4.8 | 0.00 | 0.00 | 0.00 | 39 | 996.3 |
| 20260502182835 | 21 | 167 | 1.6 | 3.2 | 0.00 | 0.00 | 0.00 | 38 | 996.2 |
| 20260502182435 | 21 | 164 | 1.6 | 3.2 | 0.00 | 0.00 | 0.00 | 37 | 996.2 |
| 20260502182033 | 22 | 156 | 1.6 | 3.2 | 0.00 | 0.00 | 0.00 | 37 | 996.2 |
| 20260502181633 | 22 | 149 | 1.6 | 3.2 | 0.00 | 0.00 | 0.00 | 36 | 996.2 |
| 20260502181233 | 23 | 138 | 1.6 | 3.2 | 0.00 | 0.00 | 0.00 | 35 | 996.2 |
| 20260502180831 | 23 | 159 | 3.2 | 4.8 | 0.00 | 0.00 | 0.00 | 34 | 996.2 |
| 20260502180431 | 24 | 172 | 3.2 | 4.8 | 0.00 | 0.00 | 0.00 | 33 | 996.2 |
| 20260502170423 | 29 | 111 | 1.6 | 3.2 | 0.00 | 0.00 | 0.00 | 26 | 996.4 |
| 20260502164010 | 29 | 77 | 3.2 | 6.4 | 0.00 | 0.00 | 0.00 | 26 | 996.7 |
| 20260502163609 | 29 | 118 | 1.6 | 3.2 | 0.00 | 0.00 | 0.00 | 26 | 996.7 |
| 20260502163208 | 29 | 91 | 0.0 | 0.0 | 0.00 | 0.00 | 0.00 | 26 | 996.7 |
| 20260502162807 | 29 | 91 | 3.2 | 3.2 | 0.00 | 0.00 | 0.00 | 26 | 996.8 |
| 20260502162407 | 29 | 117 | 3.2 | 6.4 | 0.00 | 0.00 | 0.00 | 27 | 996.8 |
| 20260502162005 | 29 | 90 | 4.8 | 8.0 | 0.00 | 0.00 | 0.00 | 27 | 996.9 |
| 20260502161605 | 29 | 86 | 3.2 | 4.8 | 0.00 | 0.00 | 0.00 | 27 | 997.0 |
| 20260502161205 | 29 | 82 | 4.8 | 6.4 | 0.00 | 0.00 | 0.00 | 27 | 997.0 |
| 20260502160805 | 29 | 72 | 3.2 | 6.4 | 0.00 | 0.00 | 0.00 | 27 | 997.0 |
| 20260502160405 | 29 | 81 | 4.8 | 8.0 | 0.00 | 0.00 | 0.00 | 27 | 997.0 |
| 20260502151956 | 27 | 83 | 8.0 | 12.9 | 0.00 | 0.00 | 0.00 | 29 | 997.6 |
| 20260502151556 | 27 | 64 | 6.4 | 8.0 | 0.00 | 0.00 | 0.00 | 29 | 997.6 |
| 20260502151157 | 27 | 72 | 3.2 | 8.0 | 0.00 | 0.00 | 0.00 | 29 | 997.7 |
| 20260502150756 | 27 | 43 | 6.4 | 8.0 | 0.00 | 0.00 | 0.00 | 30 | 997.7 |
| 20260502150356 | 27 | 75 | 6.4 | 9.7 | 0.00 | 0.00 | 0.00 | 31 | 997.8 |
| 20260502130729 | 20 | 113 | 4.8 | 9.7 | 0.00 | 0.00 | 0.00 | 39 | 999.0 |
| 20260502130329 | 20 | 105 | 6.4 | 12.9 | 0.00 | 0.00 | 0.00 | 40 | 999.0 |
| 20260502123524 | 20 | 99 | 6.4 | 9.7 | 0.00 | 0.00 | 0.00 | 41 | 999.4 |
| 20260502123124 | 19 | 110 | 11.3 | 16.1 | 0.00 | 0.00 | 0.00 | 41 | 999.4 |
| 20260502122724 | 19 | 113 | 3.2 | 8.0 | 0.00 | 0.00 | 0.00 | 41 | 999.4 |
| 20260502122324 | 19 | 15 | 4.8 | 9.7 | 0.00 | 0.00 | 0.00 | 41 | 999.5 |
| 20260502121922 | 19 | 80 | 6.4 | 12.9 | 0.00 | 0.00 | 0.00 | 41 | 999.6 |
| 20260502121519 | 19 | 276 | 1.6 | 8.0 | 0.00 | 0.00 | 0.00 | 41 | 999.6 |
| 20260502121119 | 19 | 276 | 3.2 | 4.8 | 0.00 | 0.00 | 0.00 | 40 | 999.7 |
| 20260502120720 | 19 | 53 | 4.8 | 8.0 | 0.00 | 0.00 | 0.00 | 41 | 999.7 |
| 20260502120320 | 18 | 113 | 6.4 | 11.3 | 0.00 | 0.00 | 0.00 | 41 | 999.8 |
| 20260502115918 | 18 | 108 | 9.7 | 14.5 | 0.00 | 0.00 | 0.00 | 42 | 999.8 |
| 20260502115518 | 18 | 112 | 3.2 | 14.5 | 0.00 | 0.00 | 0.00 | 41 | 999.9 |
| 20260502115118 | 18 | 103 | 4.8 | 8.0 | 0.00 | 0.00 | 0.00 | 42 | 1000.0 |
| 20260502114718 | 18 | 167 | 4.8 | 9.7 | 0.00 | 0.00 | 0.00 | 42 | 1000.0 |
| 20260502114318 | 18 | 24 | 4.8 | 9.7 | 0.00 | 0.00 | 0.00 | 42 | 1000.1 |
| 20260502113908 | 18 | 65 | 9.7 | 12.9 | 0.00 | 0.00 | 0.00 | 42 | 1000.1 |
| 20260502113508 | 18 | 72 | 3.2 | 9.7 | 0.00 | 0.00 | 0.00 | 42 | 1000.2 |
| 20260502113107 | 18 | 82 | 6.4 | 9.7 | 0.00 | 0.00 | 0.00 | 42 | 1000.2 |
| 20260502112706 | 18 | 106 | 6.4 | 12.9 | 0.00 | 0.00 | 0.00 | 42 | 1000.3 |
| 20260502112306 | 18 | 66 | 3.2 | 6.4 | 0.00 | 0.00 | 0.00 | 41 | 1000.3 |
| 20260502111904 | 18 | 105 | 3.2 | 8.0 | 0.00 | 0.00 | 0.00 | 41 | 1000.3 |
| 20260502111504 | 18 | 70 | 4.8 | 11.3 | 0.00 | 0.00 | 0.00 | 41 | 1000.3 |
| 20260502111104 | 18 | 210 | 3.2 | 4.8 | 0.00 | 0.00 | 0.00 | 41 | 1000.4 |
| 20260502110702 | 18 | 151 | 6.4 | 11.3 | 0.00 | 0.00 | 0.00 | 42 | 1000.4 |
| 20260502110302 | 18 | 74 | 4.8 | 9.7 | 0.00 | 0.00 | 0.00 | 43 | 1000.5 |
| 20260502105900 | 18 | 74 | 6.4 | 12.9 | 0.00 | 0.00 | 0.00 | 43 | 1000.6 |
| 20260502105500 | 18 | 75 | 4.8 | 8.0 | 0.00 | 0.00 | 0.00 | 43 | 1000.7 |
| 20260502105100 | 18 | 90 | 4.8 | 8.0 | 0.00 | 0.00 | 0.00 | 43 | 1000.7 |
| 20260502104700 | 18 | 105 | 4.8 | 9.7 | 0.00 | 0.00 | 0.00 | 43 | 1000.8 |
| 20260502104300 | 18 | 108 | 9.7 | 12.9 | 0.00 | 0.00 | 0.00 | 43 | 1000.8 |
| 20260502103858 | 18 | 56 | 8.0 | 12.9 | 0.00 | 0.00 | 0.00 | 42 | 1000.8 |
| 20260502103458 | 18 | 24 | 4.8 | 8.0 | 0.00 | 0.00 | 0.00 | 42 | 1000.8 |
| 20260502103058 | 18 | 66 | 11.3 | 19.3 | 0.00 | 0.00 | 0.00 | 42 | 1000.9 |
| 20260502102658 | 18 | 42 | 9.7 | 12.9 | 0.00 | 0.00 | 0.00 | 43 | 1001.0 |
| 20260502102258 | 18 | 38 | 11.3 | 17.7 | 0.00 | 0.00 | 0.00 | 43 | 1001.0 |
| 20260502101856 | 17 | 29 | 8.0 | 11.3 | 0.00 | 0.00 | 0.00 | 45 | 1001.0 |
| 20260502101456 | 17 | 102 | 6.4 | 9.7 | 0.00 | 0.00 | 0.00 | 45 | 1001.1 |
| 20260502101057 | 17 | 135 | 4.8 | 9.7 | 0.00 | 0.00 | 0.00 | 45 | 1001.1 |
| 20260502100656 | 17 | 107 | 6.4 | 12.9 | 0.00 | 0.00 | 0.00 | 46 | 1001.2 |
| 20260502100256 | 17 | 90 | 12.9 | 19.3 | 0.00 | 0.00 | 0.00 | 46 | 1001.2 |
| 20260502091449 | 17 | 113 | 6.4 | 11.3 | 0.00 | 0.00 | 0.00 | 47 | 1001.6 |
| 20260502091049 | 17 | 74 | 6.4 | 11.3 | 0.00 | 0.00 | 0.00 | 47 | 1001.6 |
| 20260502090641 | 17 | 104 | 3.2 | 8.0 | 0.00 | 0.00 | 0.00 | 47 | 1001.6 |
| 20260502090240 | 17 | 93 | 6.4 | 11.3 | 0.00 | 0.00 | 0.00 | 47 | 1001.6 |
| 20260502071420 | 13 | 19 | 3.2 | 3.2 | 0.00 | 0.00 | 0.00 | 63 | 1002.0 |
| 20260502071019 | 13 | 333 | 0.0 | 1.6 | 0.00 | 0.00 | 0.00 | 63 | 1002.0 |
| 20260502070619 | 13 | 330 | 0.0 | 0.0 | 0.00 | 0.00 | 0.00 | 64 | 1002.0 |
| 20260502070219 | 13 | 330 | 0.0 | 1.6 | 0.00 | 0.00 | 0.00 | 65 | 1001.9 |
| 20260502065817 | 13 | 20 | 1.6 | 3.2 | 0.00 | 0.00 | 0.00 | 66 | 1001.9 |
| 20260502065417 | 13 | 72 | 0.0 | 1.6 | 0.00 | 0.00 | 0.00 | 67 | 1001.9 |
| 20260502065017 | 12 | 61 | 1.6 | 3.2 | 0.00 | 0.00 | 0.00 | 67 | 1001.9 |
| 20260502064617 | 12 | 16 | 0.0 | 1.6 | 0.00 | 0.00 | 0.00 | 67 | 1002.0 |
| 20260502064217 | 12 | 16 | 0.0 | 1.6 | 0.00 | 0.00 | 0.00 | 68 | 1002.0 |
| 20260502063807 | 12 | 22 | 1.6 | 1.6 | 0.00 | 0.00 | 0.00 | 68 | 1002.0 |
| 20260502063406 | 12 | 29 | 0.0 | 0.0 | 0.00 | 0.00 | 0.00 | 69 | 1001.9 |
| 20260502063005 | 12 | 24 | 0.0 | 0.0 | 0.00 | 0.00 | 0.00 | 70 | 1002.0 |
| 20260502062601 | 12 | 41 | 1.6 | 3.2 | 0.00 | 0.00 | 0.00 | 70 | 1001.9 |
| 20260502062201 | 11 | 33 | 1.6 | 3.2 | 0.00 | 0.00 | 0.00 | 71 | 1001.9 |
| 20260502061759 | 11 | 215 | 1.6 | 1.6 | 0.00 | 0.00 | 0.00 | 71 | 1001.9 |
| 20260502061359 | 11 | 214 | 1.6 | 1.6 | 0.00 | 0.00 | 0.00 | 71 | 1002.0 |
| 20260502060959 | 11 | 214 | 1.6 | 1.6 | 0.00 | 0.00 | 0.00 | 72 | 1002.0 |
| 20260502060559 | 11 | 214 | 1.6 | 1.6 | 0.00 | 0.00 | 0.00 | 73 | 1001.9 |
| 20260502060159 | 11 | 214 | 1.6 | 1.6 | 0.00 | 0.00 | 0.00 | 73 | 1001.9 |
| 20260502055757 | 10 | 214 | 1.6 | 1.6 | 0.00 | 0.00 | 0.00 | 73 | 1001.9 |